Home > Weather > Ilioupoli > Past weeks

Flag for Greece Past Weather in Ilioupoli, Greece — Yesterday and Last 2 Weeks

Now
79 °F

Passing clouds.


Feels Like: 79 °F
Forecast: 75 / 91 °F
Wind: 8 mph from Northwest

Location: Eleftherios Venizelos International Airport

Current Time: Jul 28, 2016 at 5:53:48 AM

Latest Report: Jul 28, 2016 at 4:20 AM


Visibility: N/A

Pressure: 29.89 "Hg

Humidity: 42%

Dew Point: 54 °F

Location of IlioupoliLocation

Past Weather in Ilioupoli — Graph

°F

Ilioupoli Temperature Yesterday

Maximum temperature yesterday: 90 °F (at 2:50 PM)
Minimum temperature yesterday: 77 °F (at 4:20 AM)
Average temperature yesterday: 83 °F

High & Low Weather Summary for the Past Weeks

 TemperatureHumidityPressure
High95 °F (Jul 15, 1:20 PM)88% (Jul 14, 5:50 AM)29.98 "Hg (Jul 14, 5:50 AM)
Low64 °F (Jul 14, 5:50 AM)17% (Jul 16, 3:20 PM)29.71 "Hg (Jul 15, 6:20 PM)
Average82 °F40%29.86 "Hg
* Reported Jul 13 4:20 AM — Jul 28 4:20 AM, Ilioupoli, Weather by CustomWeather, © 2016

Note: Actual official high and low records may vary slightly from our data, if they occured in-between our weather recording intervals... More about our weather records

Advertising

Ilioupoli Weather History for the Previous 24 Hours

Scroll right to see more
 ConditionsComfort  
Time TempWeatherWind HumidityBarometerVisibility
4:20 AM
Thu, Jul 28
79 °FPassing clouds.8 mph42%29.89 "HgN/A
3:50 AM79 °FPassing clouds.8 mph42%29.89 "HgN/A
3:20 AM79 °FPassing clouds.8 mph42%29.89 "HgN/A
2:50 AM79 °FPassing clouds.8 mph42%29.89 "HgN/A
2:20 AM81 °FPassing clouds.7 mph39%29.89 "HgN/A
1:50 AM81 °FPassing clouds.7 mph39%29.89 "HgN/A
1:20 AM79 °FPassing clouds.8 mph42%29.89 "HgN/A
12:50 AM79 °FPassing clouds.8 mph42%29.89 "HgN/A
12:20 AM81 °FPassing clouds.8 mph39%29.89 "HgN/A
11:50 PM
Wed, Jul 27
81 °FPassing clouds.9 mph39%29.89 "HgN/A
11:20 PM79 °FPassing clouds.8 mph42%29.89 "HgN/A
10:50 PM81 °FPassing clouds.7 mph39%29.89 "HgN/A
10:20 PM82 °FClear.9 mph35%29.89 "Hg10 mi
9:50 PM82 °FClear.8 mph35%29.89 "Hg10 mi
9:20 PM82 °FSunny.9 mph32%29.89 "Hg10 mi
8:50 PM84 °FSunny.9 mph31%29.89 "Hg10 mi
8:20 PM84 °FSunny.14 mph31%29.89 "Hg10 mi
7:50 PM86 °FSunny.14 mph29%29.86 "Hg10 mi
7:20 PM86 °FSunny.16 mph31%29.86 "Hg10 mi
6:50 PM86 °FSunny.17 mph31%29.86 "Hg10 mi
6:20 PM88 °FSunny.21 mph29%29.86 "Hg10 mi
5:50 PM88 °FSunny.23 mph31%29.86 "Hg10 mi
5:20 PM88 °FSunny.25 mph31%29.86 "Hg10 mi
4:50 PM88 °FSunny.23 mph33%29.86 "Hg10 mi
4:20 PM90 °FSunny.26 mph31%29.86 "Hg10 mi
3:50 PM90 °FPassing clouds.25 mph29%29.86 "HgN/A
3:20 PM90 °FPassing clouds.23 mph31%29.89 "HgN/A
2:50 PM90 °FPassing clouds.23 mph31%29.89 "HgN/A
1:50 PM86 °FPassing clouds.22 mph38%29.89 "HgN/A
12:20 PM86 °FPassing clouds.23 mph38%29.89 "HgN/A
11:50 AM86 °FPassing clouds.21 mph38%29.89 "HgN/A
11:20 AM86 °FPassing clouds.18 mph38%29.89 "HgN/A
10:50 AM84 °FPassing clouds.16 mph40%29.89 "HgN/A
10:20 AM82 °FPassing clouds.18 mph45%29.89 "HgN/A
9:50 AM82 °FScattered clouds.16 mph51%29.89 "HgN/A
9:20 AM82 °FPassing clouds.15 mph51%29.89 "HgN/A
8:50 AM82 °FPassing clouds.12 mph48%29.89 "HgN/A
8:20 AM81 °FPassing clouds.7 mph54%29.86 "HgN/A
7:50 AM81 °FPassing clouds.6 mph51%29.86 "HgN/A
7:20 AM79 °FPassing clouds.3 mph51%29.86 "HgN/A
6:50 AM79 °FClear.3 mph51%29.86 "Hg10 mi
6:20 AM77 °FPassing clouds.5 mph54%29.86 "HgN/A
5:50 AM77 °FClear.No wind51%29.86 "Hg10 mi
5:20 AM79 °FClear.2 mph48%29.86 "Hg10 mi
Weather by CustomWeather, © 2016

See weather overviewHow to use our weather pages